Weather History for Mandan, ND

Change the Weather History Date:

Monday, June 9, 2014

  Actual Average (KBIS) Record (KBIS)
Temperature  
Mean Temperature 58 °F 63 °F  
Max Temperature 75 °F 75 °F 96 °F (1976)
Min Temperature 42 °F 50 °F 35 °F (1877)
Degree Days  
Heating Degree Days 6 4  
Month to date heating degree days 43  
Since 1 June heating degree days 43  
Since 1 July heating degree days 8508  
Cooling Degree Days 0 2  
Month to date cooling degree days 14  
Year to date cooling degree days 31  
Since 1 June cooling degree days 14  
Growing Degree Days 8 (Base 50)    
Moisture  
Dew Point 46 °F    
Average Humidity 67    
Maximum Humidity 100    
Minimum Humidity 29    
Precipitation  
Precipitation 0.00 in 0.11 in 1.96 in (2001)
Month to date precipitation 0.94  
Year to date precipitation 6.41  
Snow  
Snow 0.00 in 0.00 in 0.00 in (2002)
Month to date snowfall 0.0  
Since 1 June snowfall 0.0  
Since 1 July snowfall 51.2  
Snow Depth -    
Sea Level Pressure  
Sea Level Pressure 29.98 in    
Wind  
Wind Speed 10 mph (SSW)    
Max Wind Speed 18 mph    
Max Gust Speed 26 mph    
Visibility 10 miles    
Events      
T = Trace of Precipitation, MM = Missing Value Source: NWS Daily Summary

Daily Weather History Graph

Daily Weather History Graph

Search for Another Location

Airport:

Trip Planner

Search our weather history database for the weather conditions in past years. The results will help you decide how hot, cold, wet, or windy it might be!

Date:

Astronomy

Jun. 09, 2014 Rise Set
Actual Time 5:49 AM CDT 9:36 PM CDT
Civil Twilight 5:10 AM CDT 10:15 PM CDT
Nautical Twilight 4:17 AM CDT 11:08 PM CDT
Astronomical Twilight 3:02 AM CDT 12:24 AM CDT
Moon 5:47 PM CDT (6/9) 3:32 AM CDT (6/9)
Length of Visible Light 17h 04m
Length of Day
15h 46m
Waxing Gibbous, 85% of the Moon is Illuminated
Jun 9
Waxing Gibbous
Jun 12
Full
Jun 19
Last Quarter
Jun 27
New
Jul 5
First Quarter

Hourly Weather History & Observations

Time (CDT) Temp. Windchill Dew Point Humidity Pressure Visibility Wind Dir Wind Speed Gust Speed Precip Events Conditions
12:15 AM 48.2 °F - 48.2 °F 100% 30.06 in 9.0 mi SSW 9.2 mph - N/A   Partly Cloudy
12:35 AM 48.2 °F - 48.2 °F 100% 30.06 in 9.0 mi SW 8.1 mph - N/A   Clear
12:55 AM 48.2 °F - 48.2 °F 100% 30.06 in 10.0 mi SSW 8.1 mph - N/A   Clear
1:15 AM 48.2 °F - 48.2 °F 100% 30.05 in 10.0 mi SSW 9.2 mph - N/A   Partly Cloudy
1:35 AM 48.2 °F - 46.4 °F 93% 30.06 in 10.0 mi SW 5.8 mph - N/A   Partly Cloudy
1:55 AM 48.2 °F - 46.4 °F 93% 30.05 in 10.0 mi SW 9.2 mph - N/A   Clear
2:15 AM 48.2 °F - 46.4 °F 93% 30.06 in 10.0 mi WNW 8.1 mph - N/A   Partly Cloudy
2:35 AM 46.4 °F 43.5 °F 44.6 °F 93% 30.05 in 10.0 mi West 5.8 mph - N/A   Clear
2:55 AM 44.6 °F 41.4 °F 42.8 °F 93% 30.05 in 10.0 mi West 5.8 mph - N/A   Clear
3:15 AM 44.6 °F 41.4 °F 44.6 °F 100% 30.05 in 10.0 mi West 5.8 mph - N/A   Clear
3:35 AM 42.8 °F 39.3 °F 42.8 °F 100% 30.04 in 10.0 mi WSW 5.8 mph - N/A   Clear
3:55 AM 46.4 °F 41.9 °F 46.4 °F 100% 30.04 in 10.0 mi WSW 9.2 mph - N/A   Clear
4:15 AM 46.4 °F 41.9 °F 44.6 °F 93% 30.03 in 10.0 mi WSW 9.2 mph - N/A   Clear
4:35 AM 44.6 °F 39.7 °F 44.6 °F 100% 30.03 in 10.0 mi WSW 9.2 mph - N/A   Clear
4:55 AM 46.4 °F 42.9 °F 44.6 °F 93% 30.03 in 10.0 mi WSW 6.9 mph - N/A   Clear
5:15 AM 46.4 °F 42.9 °F 44.6 °F 93% 30.03 in 10.0 mi WSW 6.9 mph - N/A   Clear
5:35 AM 44.6 °F 40.2 °F 44.6 °F 100% 30.03 in 10.0 mi West 8.1 mph - N/A   Clear
5:55 AM 46.4 °F 42.4 °F 44.6 °F 93% 30.03 in 10.0 mi West 8.1 mph - N/A   Clear
6:15 AM 46.4 °F 42.9 °F 44.6 °F 93% 30.03 in 10.0 mi WSW 6.9 mph - N/A   Clear
6:35 AM 46.4 °F 45.2 °F 44.6 °F 93% 30.03 in 10.0 mi West 3.5 mph - N/A   Clear
6:55 AM 48.2 °F - 46.4 °F 93% 30.02 in 10.0 mi SW 3.5 mph - N/A   Clear
7:15 AM 48.2 °F - 46.4 °F 93% 30.03 in 10.0 mi SW 4.6 mph - N/A   Clear
7:35 AM 48.2 °F - 46.4 °F 93% 30.03 in 10.0 mi SSW 3.5 mph - N/A   Clear
7:55 AM 50.0 °F - 48.2 °F 94% 30.04 in 10.0 mi SSW 4.6 mph - N/A   Clear
8:15 AM 51.8 °F - 50.0 °F 94% 30.04 in 10.0 mi South 6.9 mph - N/A   Clear
8:35 AM 53.6 °F - 50.0 °F 88% 30.04 in 10.0 mi South 5.8 mph - N/A   Clear
8:55 AM 55.4 °F - 51.8 °F 88% 30.04 in 10.0 mi South 8.1 mph - N/A   Clear
9:15 AM 57.2 °F - 53.6 °F 88% 30.04 in 10.0 mi South 8.1 mph - N/A   Clear
9:35 AM 59.0 °F - 53.6 °F 82% 30.04 in 9.0 mi South 5.8 mph - N/A   Clear
9:55 AM 60.8 °F - 53.6 °F 77% 30.03 in 10.0 mi South 6.9 mph - N/A   Clear
10:15 AM 64.4 °F - 53.6 °F 68% 30.03 in 10.0 mi SSW 8.1 mph - N/A   Clear
10:35 AM 64.4 °F - 53.6 °F 68% 30.03 in 10.0 mi SW 8.1 mph - N/A   Clear
10:55 AM 66.2 °F - 51.8 °F 60% 30.02 in 10.0 mi SW 11.5 mph - N/A   Clear
11:35 AM 68.0 °F - 48.2 °F 49% 30.01 in 10.0 mi SW 13.8 mph - N/A   Clear
11:55 AM 69.8 °F - 46.4 °F 43% 30.00 in 10.0 mi SW 12.7 mph 18.4 mph N/A   Clear
12:15 PM 69.8 °F - 48.2 °F 46% 30.00 in 10.0 mi SW 13.8 mph - N/A   Clear
12:35 PM 71.6 °F - 44.6 °F 38% 30.00 in 10.0 mi SW 15.0 mph 20.7 mph N/A   Clear
12:55 PM 71.6 °F - 42.8 °F 35% 29.99 in 10.0 mi SW 11.5 mph 20.7 mph N/A   Clear
1:15 PM 71.6 °F - 44.6 °F 38% 29.98 in 10.0 mi SSW 15.0 mph 21.9 mph N/A   Clear
1:35 PM 71.6 °F - 46.4 °F 41% 29.98 in 10.0 mi SW 15.0 mph 20.7 mph N/A   Clear
2:35 PM 73.4 °F - 44.6 °F 36% 29.95 in 10.0 mi South 15.0 mph 21.9 mph N/A   Clear
2:55 PM 73.4 °F - 42.8 °F 33% 29.95 in 10.0 mi SSW 17.3 mph 21.9 mph N/A   Clear
3:15 PM 73.4 °F - 42.8 °F 33% 29.94 in 10.0 mi SW 15.0 mph 19.6 mph N/A   Clear
3:35 PM 73.4 °F - 44.6 °F 36% 29.93 in 10.0 mi SSW 18.4 mph 23.0 mph N/A   Clear
4:15 PM 75.2 °F - 46.4 °F 36% 29.92 in 10.0 mi SSW 17.3 mph 23.0 mph N/A   Clear
4:35 PM 75.2 °F - 44.6 °F 34% 29.92 in 10.0 mi South 16.1 mph 21.9 mph N/A   Clear
4:55 PM 75.2 °F - 41.0 °F 29% 29.91 in 10.0 mi SSW 17.3 mph 23.0 mph N/A   Clear
5:15 PM 75.2 °F - 42.8 °F 31% 29.91 in 10.0 mi South 17.3 mph - N/A   Clear
5:35 PM 75.2 °F - 41.0 °F 29% 29.91 in 10.0 mi South 16.1 mph 20.7 mph N/A   Clear
5:55 PM 75.2 °F - 44.6 °F 34% 29.91 in 10.0 mi South 15.0 mph - N/A   Clear
6:15 PM 75.2 °F - 42.8 °F 31% 29.90 in 10.0 mi SSW 17.3 mph 23.0 mph N/A   Clear
6:35 PM 73.4 °F - 44.6 °F 36% 29.90 in 10.0 mi South 17.3 mph - N/A   Clear
6:55 PM 73.4 °F - 46.4 °F 38% 29.90 in 10.0 mi SSW 18.4 mph 26.5 mph N/A   Partly Cloudy
7:15 PM 73.4 °F - 46.4 °F 38% 29.90 in 10.0 mi South 17.3 mph 21.9 mph N/A   Scattered Clouds
7:35 PM 71.6 °F - 44.6 °F 38% 29.90 in 10.0 mi SSW 13.8 mph - N/A   Partly Cloudy
7:55 PM 71.6 °F - 46.4 °F 41% 29.90 in 10.0 mi SSW 16.1 mph 21.9 mph N/A   Clear
8:15 PM 68.0 °F - 44.6 °F 43% 29.90 in 10.0 mi South 12.7 mph - N/A   Clear
8:35 PM 66.2 °F - 44.6 °F 46% 29.90 in 10.0 mi South 10.4 mph - N/A   Clear
8:55 PM 66.2 °F - 46.4 °F 49% 29.89 in 10.0 mi South 11.5 mph - N/A   Clear
9:15 PM 64.4 °F - 46.4 °F 52% 29.89 in 10.0 mi South 10.4 mph - N/A   Clear
9:35 PM 62.6 °F - 46.4 °F 55% 29.89 in 10.0 mi South 10.4 mph - N/A   Clear
9:55 PM 59.0 °F - 46.4 °F 63% 29.90 in 10.0 mi South 10.4 mph - N/A   Clear
10:15 PM 59.0 °F - 46.4 °F 63% 29.89 in 10.0 mi South 10.4 mph - N/A   Clear
10:35 PM 59.0 °F - 46.4 °F 63% 29.89 in 10.0 mi South 12.7 mph - N/A   Clear
10:55 PM 59.0 °F - 46.4 °F 63% 29.88 in 10.0 mi South 13.8 mph - N/A   Clear
11:15 PM 57.2 °F - 48.2 °F 72% 29.87 in 10.0 mi South 13.8 mph - N/A   Clear
11:35 PM 57.2 °F - 48.2 °F 72% 29.87 in 10.0 mi South 13.8 mph - N/A   Clear
11:55 PM 57.2 °F - 48.2 °F 72% 29.87 in 10.0 mi South 12.7 mph - N/A   Clear